Погода в Гулине

Чехия     49°18′52″N   17°28′14″E
темп.,
°C
ветер,
м/с
пор.,
м/с
влажн.,
%
обл.,
%
осадки,
мм/ч
давл.,
гПа
погр.,
м
17 апреля, сб
сб1723:00+3сз2388100 0.0 1022320
02:00+3зсз248794 0.0 1021301
05:00+3сз1596100 0.0 1020535
08:00+3ссз2394100 0.1 1020567
11:00+4с1195100 0.1 1020566
14:00+6ссз2180100 0.2 1020554
17:00+6ссв447599 0.1 1019638
20:00+4ссв3691100 0.1 1020312
18 апреля, вс
вс1823:00+3с2593100 0.0 1020276
02:00+3с2695100 0.0 1020346
05:00+3с2697100 0.0 1019380
08:00+4с3696100 0.0 1019526
11:00+5ссв4692100 0.0 1019585
14:00+9ссв4469100 0.1 1018963
17:00+8ссв5570100 0.0 1018740
20:00+6ссв3582100 0.0 1018116
19 апреля, пн
пн1923:00+5с2389100 0.0 101959
02:00+4с229493 0.0 101841
05:00+4с2294100 0.0 101858
08:00+5ссв2892100 0.5 1017565
11:00+7св3789100 0.9 1017706
14:00+8св2482100 1.4 1016566
17:00+10ссв3471100 0.3 10151003
20:00+7с2295100 2.0 101561
20 апреля, вт
вт2023:00+6с2493100 0.6 1015120
02:00+6ссв2396100 0.8 1014150
05:00+6ссв2595100 0.2 1014247
08:00+6ссв489193 0.6 1014482
11:00+9ссв567595 0.1 1014920
14:00+11с556653 0.2 10131134
17:00+10ссв456948 0.1 1013909
20:00+8с3572100 0.1 1014132
21 апреля, ср
ср2123:00+7с227549 0.0 101435
02:00+6сз228785 0.0 101554
05:00+6зюз008744 0.0 101511
08:00+8ююз22795 0.0 1015227
11:00+12зюз456076 0.1 10151183
14:00+14зюз56577 0.3 10141347
17:00+14зюз455594 0.6 10131554
20:00+9ююз2277100 0.9 101412